Weather History for Cincinnati, OH

Change the Weather History Date:

Tuesday, September 3, 2013

  Actual Average Record
Temperature  
Mean Temperature 67 °F -  
Max Temperature 75 °F 81 °F 99 °F (2011)
Min Temperature 59 °F 64 °F 50 °F (1952)
Cooling Degree Days 2    
Growing Degree Days 17 (Base 50)    
Moisture  
Dew Point 56 °F    
Average Humidity 70    
Maximum Humidity 96    
Minimum Humidity 46    
Precipitation  
Precipitation 0.00 in - - ()
Sea Level Pressure  
Sea Level Pressure 30.01 in    
Wind  
Wind Speed 6 mph (North)    
Max Wind Speed 10 mph    
Max Gust Speed 16 mph    
Visibility 10 miles    
Events      
Averages and records for this station are not official NWS values.
T = Trace of Precipitation, MM = Missing Value Source: NWS Daily Summary

Daily Weather History Graph

Daily Weather History Graph

Search for Another Location

Airport:

Trip Planner

Search our weather history database for the weather conditions in past years. The results will help you decide how hot, cold, wet, or windy it might be!

Date:

Astronomy

Sep. 03, 2013 Rise Set
Actual Time 7:08 AM EDT 8:04 PM EDT
Civil Twilight 6:41 AM EDT 8:31 PM EDT
Nautical Twilight 6:08 AM EDT 9:04 PM EDT
Astronomical Twilight 5:35 AM EDT 9:37 PM EDT
Moon 5:21 AM EDT (9/3) 6:51 PM EDT (9/3)
Length of Visible Light 13h 50m
Length of Day
12h 56m
Waning Crescent, 3% of the Moon is Illuminated
Sep 3
Waning Crescent
Sep 5
New
Sep 12
First Quarter
Sep 19
Full
Sep 26
Last Quarter

Hourly Weather History & Observations

Time (EDT) Temp. Dew Point Humidity Pressure Visibility Wind Dir Wind Speed Gust Speed Precip Events Conditions
12:53 AM 71.1 °F 57.9 °F 63% 29.90 in 10.0 mi North 9.2 mph - N/A   Clear
1:53 AM 66.0 °F 59.0 °F 78% 29.91 in 10.0 mi NE 5.8 mph - N/A   Clear
2:53 AM 66.9 °F 57.9 °F 73% 29.93 in 10.0 mi North 4.6 mph - N/A   Partly Cloudy
3:53 AM 66.9 °F 59.0 °F 76% 29.94 in 10.0 mi Calm Calm - N/A   Mostly Cloudy
4:53 AM 64.0 °F 57.0 °F 78% 29.95 in 10.0 mi North 5.8 mph - N/A   Partly Cloudy
5:53 AM 63.0 °F 57.0 °F 81% 29.96 in 10.0 mi North 5.8 mph - N/A   Clear
6:53 AM 61.0 °F 55.9 °F 83% 29.97 in 10.0 mi North 10.4 mph - N/A   Clear
7:53 AM 61.0 °F 55.9 °F 83% 30.01 in 10.0 mi North 5.8 mph - N/A   Clear
8:53 AM 63.0 °F 55.9 °F 78% 30.03 in 10.0 mi North 6.9 mph - N/A   Clear
9:53 AM 63.0 °F 55.0 °F 75% 30.04 in 10.0 mi North 8.1 mph - N/A   Partly Cloudy
10:53 AM 66.9 °F 55.0 °F 66% 30.04 in 10.0 mi NNE 9.2 mph - N/A   Scattered Clouds
11:53 AM 68.0 °F 54.0 °F 61% 30.04 in 10.0 mi NW 9.2 mph - N/A   Clear
12:53 PM 71.1 °F 54.0 °F 55% 30.04 in 10.0 mi NNW 10.4 mph - N/A   Partly Cloudy
1:53 PM 72.0 °F 54.0 °F 53% 30.03 in 10.0 mi NE 5.8 mph - N/A   Clear
2:53 PM 73.9 °F 53.1 °F 48% 30.03 in 10.0 mi NNW 10.4 mph - N/A   Clear
3:53 PM 75.0 °F 54.0 °F 48% 30.02 in 10.0 mi NNE 9.2 mph 16.1 mph N/A   Clear
4:53 PM 75.0 °F 54.0 °F 48% 30.01 in 10.0 mi North 10.4 mph - N/A   Clear
5:53 PM 75.0 °F 53.1 °F 46% 30.01 in 10.0 mi Variable 4.6 mph - N/A   Clear
6:53 PM 73.9 °F 54.0 °F 50% 30.01 in 10.0 mi NNE 8.1 mph - N/A   Clear
7:53 PM 70.0 °F 57.0 °F 63% 30.01 in 10.0 mi NNE 3.5 mph - N/A   Clear
8:53 PM 63.0 °F 59.0 °F 87% 30.04 in 10.0 mi Calm Calm - N/A   Clear
9:53 PM 61.0 °F 57.9 °F 90% 30.05 in 10.0 mi Calm Calm - N/A   Clear
10:53 PM 59.0 °F 57.0 °F 93% 30.07 in 10.0 mi Calm Calm - N/A   Clear
11:53 PM 59.0 °F 57.9 °F 96% 30.08 in 10.0 mi Calm Calm - N/A   Clear